Hlavní strana
METAR-TAF:

METAR-TAF

Letiště :

Fort-de-France, Martinik

zeměpisná šířka: 14-36N, zeměpisná délka: 061-00W, výška: 5 m

Aktuální stav počasí

Zpráva byla vytvořena před 26 minutami, v 11:00 UTC
Východní vítr 10 kt
Teplota 27°C
Vlhkost vzduchu 89%
Tlak 1012 hPa
Viditelnost 10 km a více

METAR: TFFF 261100Z AUTO 09010KT 9999 SCT022/// BKN030/// BKN035/// ///TCU 27/25 Q1012 BECMG SCT025

Čas: 07:26 (11:26 UTC)

Předpověď počasí

Zpráva byla vytvořena před 6 hodinami a 26 minutami, v 05:00 UTC
Předpověď platná od 26 v 06 UTC do 27 v 06 UTC
vítr z různých směrů 3 kt
Viditelnost 10 km a více
Polojasno ve výšce 2500 ft
Dočasný
od 26 v 06 UTC do 26 v 09 UTC
Viditelnost: 4000 m
Polojasno ve výšce 1800 ft, Vertikální cumulus.
dešťové přeháňky
Změna
od 26 v 12 UTC do 26 v 14 UTC
Východojihovýchodní vítr 12 kt

TAF: TFFF 260500Z 2606/2706 VRB03KT 9999 SCT025 TEMPO 2606/2609 4000 SHRA SCT018TCU BECMG 2612/2614 12012KT

Stav a předpovědi počasí z více než 4 000 letišť (zprávy METAR a TAF).

Červené a žluté tečky na mapě představují dostupné meteorologické stanice.

Když kurzor umístíte na tečku, zobrazí se název stanice.

Pak kliknutím zobrazíte stav a předpověď počasí.

Chcete-li změnit mapu, kliknutím na zelené tlačítko se znaménkem +mapu přiblížíte, kliknutím na zelené tlačítko se znaménkem – mapu oddálíte a kliknutím na zelené šipky přejdete na sousední mapy.


METAR-TAF: